Satellite-Ground Cal/Val Region Overpasses Predictions

Prediction of Satellite NPP Overpassing Cal/Val Region: PacNW

Region Location: (Latitude: 10.00, Longitude: 139.50) to (Latitude: 22.70, Longitude: 165.60).

Table of predicted overpasses for the next 14.0 days since TLE Epoch: 11/10/2013
Interval Starting Time Starting Location Ending Time Ending Location
1 11/11/2013 02:27:55 ( 10.05, 163.05) 11/11/2013 02:31:30 ( 22.67, 160.04)
2 11/11/2013 14:59:48 ( 22.67, 160.31) 11/11/2013 15:03:23 ( 10.05, 157.30)
3 11/12/2013 02:11:34 ( 19.47, 165.59) 11/12/2013 02:12:29 ( 22.69, 164.79)
4 11/12/2013 03:50:23 ( 10.02, 142.44) 11/12/2013 03:53:53 ( 22.35, 139.51)
5 11/12/2013 14:40:47 ( 22.65, 165.07) 11/12/2013 14:44:22 ( 10.03, 162.06)
6 11/12/2013 16:22:16 ( 22.64, 139.69) 11/12/2013 16:22:29 ( 21.88, 139.50)
7 11/13/2013 03:31:21 ( 10.04, 147.20) 11/13/2013 03:34:56 ( 22.66, 144.19)
8 11/13/2013 16:03:14 ( 22.68, 144.47) 11/13/2013 16:06:50 ( 10.00, 141.44)
9 11/14/2013 03:12:19 ( 10.00, 151.97) 11/14/2013 03:15:55 ( 22.68, 148.95)
10 11/14/2013 15:44:13 ( 22.66, 149.22) 11/14/2013 15:47:48 ( 10.04, 146.21)
11 11/15/2013 02:53:17 ( 10.03, 156.73) 11/15/2013 02:56:52 ( 22.65, 153.72)
12 11/15/2013 15:25:10 ( 22.70, 153.99) 11/15/2013 15:28:46 ( 10.02, 150.97)
13 11/16/2013 02:34:16 ( 10.05, 161.48) 11/16/2013 02:37:51 ( 22.67, 158.47)
14 11/16/2013 15:06:09 ( 22.67, 158.75) 11/16/2013 15:09:44 ( 10.06, 155.74)
15 11/17/2013 02:16:02 ( 12.89, 165.59) 11/17/2013 02:18:49 ( 22.69, 163.23)
16 11/17/2013 03:56:43 ( 10.02, 140.88) 11/17/2013 03:58:23 ( 15.90, 139.51)
17 11/17/2013 14:47:07 ( 22.65, 163.50) 11/17/2013 14:50:42 ( 10.03, 160.49)
18 11/18/2013 03:37:42 ( 10.05, 145.63) 11/18/2013 03:41:17 ( 22.67, 142.62)
19 11/18/2013 14:31:16 ( 11.48, 165.59) 11/18/2013 14:31:41 ( 10.01, 165.25)
20 11/18/2013 16:09:35 ( 22.68, 142.90) 11/18/2013 16:13:11 ( 10.00, 139.87)
21 11/19/2013 03:18:39 ( 10.01, 150.40) 11/19/2013 03:22:15 ( 22.69, 147.38)
22 11/19/2013 15:50:33 ( 22.65, 147.66) 11/19/2013 15:54:08 ( 10.03, 144.64)
23 11/20/2013 02:59:38 ( 10.04, 155.16) 11/20/2013 03:03:13 ( 22.66, 152.15)
24 11/20/2013 15:31:31 ( 22.68, 152.43) 11/20/2013 15:35:07 ( 10.01, 149.40)
25 11/21/2013 02:40:36 ( 10.01, 159.93) 11/21/2013 02:44:12 ( 22.69, 156.90)
26 11/21/2013 15:12:29 ( 22.66, 157.18) 11/21/2013 15:16:04 ( 10.04, 154.17)
27 11/22/2013 02:21:34 ( 10.04, 164.69) 11/22/2013 02:25:09 ( 22.66, 161.67)
28 11/22/2013 14:53:27 ( 22.69, 161.95) 11/22/2013 14:57:03 ( 10.01, 158.93)
29 11/23/2013 03:44:02 ( 10.01, 144.08) 11/23/2013 03:47:38 ( 22.69, 141.05)
30 11/23/2013 14:35:42 ( 18.15, 165.59) 11/23/2013 14:38:00 ( 10.04, 163.69)
31 11/23/2013 16:15:55 ( 22.66, 141.33) 11/23/2013 16:18:03 ( 15.15, 139.51)
32 11/24/2013 03:25:00 ( 10.04, 148.83) 11/24/2013 03:28:35 ( 22.66, 145.82)


NCC Satellite Cal/Val Overpasses Prediction Service
